# Land Stadt Wetter Temperatur Luftdruck Luftfeuchtigkeit Sichtweite Windgeschwindigkeit Windrichtung Ortszeit
1 jp Nagasaki Clouds 17 1020 100 0 15 57 02.08.2018 14:21
2 cd Kisangani Clouds 22 1010 81 0 1 100 02.08.2018 14:23
3 fj Suva -273 0 0 0 0 0 02.08.2018 14:21
4 de Hiddensee Clouds 14 1015 86 0 2 180 02.08.2018 14:21
5 de Magdeburg Clouds 14 1012 84 0 2 118 02.08.2018 14:22
6 us Death Valley Clouds 21 1002 23 0 6 85 02.08.2018 14:22
7 br Rio de Janeiro -273 0 0 0 0 0 02.08.2018 14:22
8 ru Werchojansk Clouds -8 1011 95 0 6 27 02.08.2018 14:22
9 in Jagatsukh Clear -3 1022 87 0 4 104 02.08.2018 14:22
10 ae Dubai -273 0 0 0 0 0 02.08.2018 14:21
11 ru Amderma Clouds 0 1022 69 0 10 300 02.08.2018 14:23
12 ch Andermatt Clouds 13 1017 81 0 11 70 02.08.2018 14:23
13 mn Uliastai Clouds -1 1010 43 0 7 171 02.08.2018 14:23
14 cn Lhasa Clouds 2 1023 49 0 6 29 02.08.2018 14:22
15 bo Potisi Clouds 14 1009 29 0 10 288 02.08.2018 14:22
16 fr Bordeaux -273 0 0 0 0 0 02.08.2018 14:21
17 ar Buenos Aires Drizzle 17 1013 100 1200 17 40 02.08.2018 14:22
18 in Nagpur Haze 23 1015 83 2500 6 51 02.08.2018 14:21
19 in Mumbai Haze 31 1010 58 3000 5 110 02.08.2018 14:22
20 de Trier Mist 13 1012 93 4500 17 200 02.08.2018 14:21
21 ua Kiew Mist 12 1019 93 4700 4 250 02.08.2018 14:21
22 kr Seoul Mist 10 1026 93 4800 18 92 02.08.2018 14:21
23 id Jakarta Rain 25 1010 88 5000 5 0 02.08.2018 14:22
24 cn Peking Mist 11 1024 87 5000 7 140 02.08.2018 14:23
25 tr Alanya Haze 22 1020 73 5000 5 320 02.08.2018 14:22
26 eg Kairo Clear 29 1017 45 6000 9 10 02.08.2018 14:22
27 gb London Rain 12 1004 93 6000 21 240 02.08.2018 14:22
28 vn Hanoi Clouds 25 1017 83 7000 15 50 02.08.2018 14:21
29 cl Santiago Clouds 21 1020 39 7000 8 200 02.08.2018 14:23
30 iq Bagdad Clouds 29 1016 37 8000 5 290 02.08.2018 14:22
31 de Frankfurt Rain 14 1013 100 9000 15 180 02.08.2018 14:22
32 se Stockholm Clouds 8 1010 93 9000 2 0 02.08.2018 14:23
33 mx Mexiko Stadt Rain 18 1025 77 9656 5 70 02.08.2018 14:21
34 za Kapstadt Clouds 18 1013 82 10000 33 190 02.08.2018 14:22
35 no Oslo Rain 7 1008 93 10000 8 50 02.08.2018 14:23
36 jp Tokio Rain 16 1025 82 10000 26 10 02.08.2018 14:22
37 de Torfhaus Clear 15 1011 82 10000 9 110 02.08.2018 14:22
38 ke Nairobi Clouds 15 1021 82 10000 11 200 02.08.2018 14:22
39 ru Moskau Clouds 15 1012 62 10000 22 240 02.08.2018 14:22
40 gl Nuuk Clouds 3 1010 55 10000 11 190 02.08.2018 14:22
41 at Wien Fog 11 1016 77 10000 9 120 02.08.2018 14:22
42 de Kassel Drizzle 14 1012 87 10000 17 180 02.08.2018 14:21
43 es Barcelona Clouds 21 1014 77 10000 18 230 02.08.2018 14:22
44 it Palermo Clear 17 1019 68 10000 17 70 02.08.2018 14:22
45 is Reykjavik Clear 6 1010 63 10000 8 20 02.08.2018 14:22
46 no Hammerfest Clear 0 1009 74 10000 21 210 02.08.2018 14:22
47 pt Lissabon Clouds 20 1018 94 10000 24 210 02.08.2018 14:22
48 fi Helsinki Rain 5 1010 93 10000 17 50 02.08.2018 14:21
49 de Helgoland Clouds 13 1010 87 10000 5 150 02.08.2018 14:22
50 ie Dublin Clouds 8 994 87 10000 15 180 02.08.2018 14:21
51 au Darwin Clouds 23 1011 88 10000 5 70 02.08.2018 14:22
52 ch Bern Rain 13 1016 93 10000 4 0 02.08.2018 14:23
53 es Las Palmas de Gran Canaria Clouds 22 1020 53 10000 28 20 02.08.2018 14:21
54 ma Marrakesch Clear 26 1018 34 10000 9 30 02.08.2018 14:23
55 ma Casablanca Clear 20 1019 68 10000 22 10 02.08.2018 14:23
56 it Rom Clear 16 1019 72 10000 8 130 02.08.2018 14:23
57 tr Istanbul Clouds 19 1019 77 10000 13 30 02.08.2018 14:23
58 et Addis Abeba Clouds 16 1026 55 10000 18 70 02.08.2018 14:23
59 sa Riad Clear 27 1019 36 10000 7 120 02.08.2018 14:21
60 ru Surgut Snow -3 1015 68 10000 18 330 02.08.2018 14:23
61 tr Ankara Clouds 15 1020 54 10000 2 0 02.08.2018 14:23
62 at Innsbruck Clear 10 1016 71 10000 5 270 02.08.2018 14:23
63 pe Cusco Clouds 14 1031 58 10000 21 110 02.08.2018 14:23
64 ar Ushuaia Rain 7 1002 75 10000 21 230 02.08.2018 14:22
65 uy Montevideo Rain 17 1015 88 10000 18 60 02.08.2018 14:22
66 ru Jakutsk Clear -2 1009 100 10000 11 340 02.08.2018 14:22
67 es Madrid Clouds 15 1019 82 10000 11 240 02.08.2018 14:23
68 mv Male Clouds 28 1011 83 10000 11 200 02.08.2018 14:23
69 ru Anadyr Clear -5 994 92 10000 11 40 02.08.2018 14:23
70 qa Doha Haze 31 1014 66 10000 5 20 02.08.2018 14:23
71 nz Wellington Rain 13 1012 87 10000 30 350 02.08.2018 14:23
72 fr Nizza Clouds 14 1018 72 10000 4 250 02.08.2018 14:22
73 mn Ulaanbaatar Clear -7 1015 57 10000 7 133 02.08.2018 14:23
74 do Santo Domingo Clouds 32 1014 56 10000 11 150 02.08.2018 14:21
75 fi Rovaniemi Clouds -1 1015 92 10000 11 120 02.08.2018 14:21
76 gb Glasgow Rain 10 997 87 10000 11 80 02.08.2018 14:21
77 gb Manchester Rain 11 1000 81 10000 8 140 02.08.2018 14:21
78 de Flensburg Clouds 11 1009 93 10000 15 210 02.08.2018 14:21
79 de Oberstdorf Clear 13 1015 81 10000 4 0 02.08.2018 14:21
80 de Emden Clouds 13 1009 82 10000 8 140 02.08.2018 14:21
81 it Mailand Clear 15 1018 77 10000 8 200 02.08.2018 14:21
82 pg Port Moresby Fog 21 1011 100 10000 4 0 02.08.2018 14:21
83 au Perth Clear 12 1019 87 10000 15 160 02.08.2018 14:21
84 br Manaus Rain 31 1012 66 10000 5 170 02.08.2018 14:21
85 bg Sofia Clear 14 1019 51 10000 4 0 02.08.2018 14:21
86 bg Warna Clear 13 1018 93 10000 5 30 02.08.2018 14:21
87 af Kabul Clouds 15 1024 50 10000 8 110 02.08.2018 14:21
88 es Tarifa Clear 22 1018 60 10000 17 230 02.08.2018 14:21
89 de Braunschweig Clear 15 1011 82 10000 8 130 02.08.2018 14:21
90 de Köln Rain 14 1010 93 10000 13 140 02.08.2018 14:21
91 th Bangkok Clouds 30 1012 78 10000 5 40 02.08.2018 14:21
92 ph Manila Clouds 27 1011 83 10000 4 0 02.08.2018 14:21
93 de Berlin Clouds 16 1013 72 10000 9 180 02.08.2018 14:21
94 au Alice Springs Clear 13 1018 32 10000 17 51 02.08.2018 14:21
95 de Hamburg Clouds 13 1011 100 10000 4 0 02.08.2018 14:21
96 de München Clouds 13 1015 87 10000 4 180 02.08.2018 14:21
97 mg Antananarivo Clouds 17 1024 82 10000 21 120 02.08.2018 14:21
98 cn Shanghai Clear 18 1021 82 10000 7 340 02.08.2018 14:21
99 ad Andorra la Vella Clear 15 1016 42 10000 9 230 02.08.2018 14:22
100 de Hannover Drizzle 15 1011 87 10000 2 280 02.08.2018 14:21
101 au Sydney Clear 11 1015 46 10000 11 360 02.08.2018 14:22
102 de Nürnberg Clear 13 1014 76 10000 4 100 02.08.2018 14:21
103 ck Avarua Rain 23 1016 83 10000 11 90 02.08.2018 14:22
104 sb Honiara Clouds 22 1010 100 10000 24 143 02.08.2018 14:22
105 fr Paris Clouds 15 1010 87 10000 13 180 02.08.2018 14:22
106 es Sevilla Clear 23 1018 47 10000 18 220 02.08.2018 14:22
107 es Palma de Mallorca Clear 21 1017 73 10000 8 220 02.08.2018 14:22
108 gr Athen Clouds 21 1017 78 10000 5 0 02.08.2018 14:22
109 ar Esquel Clouds 13 1022 47 10000 13 270 02.08.2018 14:22
110 bo La Paz Clouds 8 1038 81 10000 4 10 02.08.2018 14:22
111 ec San Cristobal Clouds 23 1014 73 10000 24 180 02.08.2018 14:22
112 de Freiburg Rain 14 1014 87 10000 21 180 02.08.2018 14:22
113 de Dresden Clear 13 1014 76 10000 11 150 02.08.2018 14:22
114 de Stuttgart Rain 14 1015 87 10000 5 230 02.08.2018 14:22
115 de Bremen Clear 13 1010 93 10000 8 130 02.08.2018 14:22
116 bs Nassau Rain 30 1015 74 10000 13 280 02.08.2018 14:22
117 us Fairbanks Clouds -5 989 68 11265 9 40 02.08.2018 14:23
118 mx Veracruz Clouds 28 1012 78 11265 5 360 02.08.2018 14:21
119 ca Montreal Rain 7 986 93 14484 39 10 02.08.2018 14:22
120 us Denver Clear 22 1012 13 16093 7 153 02.08.2018 14:21
121 us Honolulu Clouds 26 1017 74 16093 13 90 02.08.2018 14:22
122 us New York Clouds 14 994 47 16093 44 280 02.08.2018 14:22
123 us Nome Clouds -6 990 92 16093 4 4 02.08.2018 14:23
124 us Chicago Clouds 11 1017 53 16093 11 350 02.08.2018 14:23
125 us Las Vegas Clear 25 1007 17 16093 27 232 02.08.2018 14:21
126 us Tucson Clear 30 1010 21 16093 17 130 02.08.2018 14:21
127 us Los Angeles Haze 21 1011 64 16093 9 140 02.08.2018 14:22
128 us Miami Clouds 31 1013 59 16093 15 270 02.08.2018 14:23